Regional Weather Roundup
Issued by NWS

Home | Current Version | Previous Version | Graphics & Text | Print | Product List | Glossary On
Versions: 1 2 3 4 5 6 7 8 9 10 11 12 13 14 15 16 17 18 19 20 21 22 23 24 25 26 27 28 29 30 31 32 33 34 35 36 37 38 39 40 41 42 43 44 45 46 47 48 49 50
000
ASUS43 KDTX 251310
RWRMI
MICHIGAN HOURLY REGIONAL WEATHER ROUNDUP
NATIONAL WEATHER SERVICE DETROIT/PONTIAC MI
900 AM EDT THU AUG 25 2016

NOTE: "FAIR" INDICATES FEW OR NO CLOUDS BELOW 12,000 FEET WITH NO
SIGNIFICANT WEATHER AND/OR OBSTRUCTION TO VISIBILITY.

MIZ047>049-052>055-059>063-066>070-074>076-081>083-251400-
SOUTHEAST LOWER MICHIGAN

CITY           SKY/WX    TMP DP  RH WIND       PRES   REMARKS
ADRIAN         CLOUDY    71  71 100 W5        30.01F
ALMA           LGT RAIN  73  73 100 S8        29.97F
ANN ARBOR      MOSUNNY   72  71  97 S3        30.00S
BAD AXE        CLOUDY    72  72 100 W7        29.97R FOG
CARO           CLOUDY    72  72  99 SW5       29.97R FOG
DETROIT CITY   MOSUNNY   76  74  93 SW3       29.99S
DETROIT        CLOUDY    75  72  90 SW6       30.00F
FLINT          RAIN      76  72  87 W6        29.99R FOG
GROSSE ILE     CLOUDY    74  71  89 CALM      29.98F
HILLSDALE      MOSUNNY   73  70  88 CALM      30.01S
HOWELL         CLOUDY    73  72  96 SW3       29.99F

CITY           SKY/WX    TMP DP  RH WIND       PRES   REMARKS
JACKSON        CLOUDY    73  72  96 SW9       30.00F
LAMBERTVILLE   CLOUDY    74  71  90 CALM      30.00F
LANSING        CLOUDY    73  69  87 NW5       29.99S
LAPEER         CLOUDY    75  72  90 SW7       29.99R
MASON          CLOUDY    72  70  93 CALM      29.99S
MONROE         CLOUDY    74  72  95 SW7       30.00S
MT. CLEMENS    PTSUNNY   75  74  95 W8        29.97R
PONTIAC        CLOUDY    74  71  91 W8        29.99S
PORT HURON     CLOUDY    73  73 100 CALM      29.98S FOG
TRI CITIES     RAIN      72  72 100 SW8       29.98R VSB 1
MIDLAND        LGT RAIN  71  70  99 SW3       29.96S
TROY           CLOUDY    75  72  90 W6        30.01S FOG
SAGINAW HB     RAIN      72  70  94 SW8       29.98R
$$
MIZ043>046-050>051-056>058-064>065-071>073-077>080-251400-
SOUTHWEST LOWER MICHIGAN

CITY           SKY/WX    TMP DP  RH WIND       PRES   REMARKS
BATTLE CREEK   MOSUNNY   71  71 100 SW7       29.99F
BENTON HARBOR  CLOUDY    74  70  87 SW10      29.98R
BIG RAPIDS     CLOUDY    71  70  98 CALM      29.97S FOG
COLDWATER      CLOUDY    73  72  97 SW5       30.01R
FREMONT        CLOUDY    70  69  98 CALM      29.97S
HOLLAND        MOSUNNY   74  72  93 CALM      29.97S
GRAND RAPIDS   CLOUDY    73  69  87 SW7       29.97S
IONIA          PTSUNNY   72  71  95 SE3       29.97F FOG
KALAMAZOO      CLOUDY    73  69  87 SW6       29.98F
LUDINGTON      PTSUNNY   69  69  98 NW5       29.96S
MARSHALL       CLOUDY    72  72 100 S3        29.99F
MOUNT PLEASANT RAIN      72  71  97 SW5       29.96S
MUSKEGON       LGT RAIN  73  71  93 CALM      29.97S
SOUTH HAVEN    CLOUDY    74  73  96 SW7       29.98R
$$
MIZ016>042-251400-
NORTHERN LOWER MICHIGAN

CITY           SKY/WX    TMP DP  RH WIND       PRES   REMARKS
BEAVER ISLAND  CLOUDY    68  64  89 CALM      29.93R
BELLAIRE       PTSUNNY   71  68  90 SW3       29.94R
CADILLAC       CLOUDY    68  67  96 W3        29.98R
CHARLEVOIX     CLOUDY    70  66  86 SW3       29.96R
FRANKFORT      CLOUDY    68  66  93 CALM      29.95S
GAYLORD        PTSUNNY   70  65  84 W9        29.96S
GRAYLING       CLOUDY    69  68  94 W3        29.97S
HARBOR SPRINGS CLOUDY    71  66  87 W3        29.93R
HOUGHTON LAKE  MOSUNNY   69  67  93 VRB6      29.98R
MANISTEE       MOSUNNY   69  68  96 CALM      29.96R
OSCODA         PTSUNNY   70  69  96 SW6       29.93S
PELLSTON       CLOUDY    70  66  87 SW3       29.92R
ROGERS CITY    CLOUDY    72  68  87 W7        29.92S
TRAVERSE CITY  CLOUDY    71  68  90 SW5       29.93R
$$
MIZ007>008-015-251400-
EASTERN UPPER MICHIGAN

CITY           SKY/WX    TMP DP  RH WIND       PRES   REMARKS
KINROSS        MOSUNNY   66  65  96 W3        29.90S
MACKINAC ISLAN CLOUDY    69  69 100 W8        29.90S
NEWBERRY       SUNNY     65  63  91 W10       29.90S
S. S. MARIE    MOSUNNY   66  66 100 W5        29.88F
$$
MIZ004>006-011>014-085-251400-
CENTRAL UPPER MICHIGAN

CITY           SKY/WX    TMP DP  RH WIND       PRES   REMARKS
MANISTIQUE     MOSUNNY   66  62  86 NW7       29.91R
ESCANABA       MOSUNNY   65  60  84 W8        29.93R
MENOMINEE      CLOUDY   N/A N/A N/A CALM      29.97R
SAWYER-GWINN   SUNNY     61  57  88 NW6       29.94F
$$
MIZ001>003-009>011-084-251400-
WESTERN UPPER MICHIGAN

CITY           SKY/WX    TMP DP  RH WIND       PRES   REMARKS
IRON MOUNTAIN  CLOUDY    63  57  81 W6        29.95F
HOUGHTON       SUNNY     66  59  78 W7        29.91S
COPPER HARBOR    N/A     68  59  73 VRB5      29.88S
IRONWOOD       SUNNY     62  56  80 SW7       29.97S
$$

ABBREVIATIONS USED IN REMARKS
   TC - TEMPERATURE IN CELSIUS
  WCI - WIND CHILL INDEX
   HX - HEAT INDEX
  VSB - VISIBILITY




USA.gov is the U.S. government's official web portal to all federal, state and local government web resources and services.